Date String (YYYY-MM-DD hh:mm:ss) UTC,Instrument flags,Ambient pressure (hPa),Sample flow (lpm),Bypass flow (lpm),Sample temperature (°C),Ambient temperature (°C),ASC tube jacket temperature (°C),LED temperature (°C),Box temperature (°C),Sample RH (%),Span deviation,Mass concentration (μg/m³),Mass concentration (μg/m³),Mass concentration (μg/m³)
DateTimeUTC,F1_M11,P_M11,Q1_M11,Q2_M11,T1_M11,T2_M11,T3_M11,T4_M11,T5_M11,U1_M11,ZSPAN_M11,X0_M11,X2_M11,X1_M11
2021-10-15 07:00:00,,0828.1,5.01,0.00,23.4,22.4,00.0,32.7,25.0,20.9,0001.3,0015.53,0010.53,0009.98
2021-10-15 07:01:00,,0828.2,4.99,0.00,23.3,22.5,00.0,32.7,25.0,20.8,0002.0,0015.25,0010.65,0010.09
2021-10-15 07:02:00,,0828.3,5.00,0.00,23.3,22.5,00.0,32.7,25.1,20.7,0002.0,0015.08,0010.68,0010.15
2021-10-15 07:03:00,,0828.3,5.00,0.00,23.4,22.5,00.0,32.7,25.1,20.5,0002.0,0015.01,0010.71,0010.19
2021-10-15 07:04:00,,0828.3,5.01,0.00,23.4,22.6,00.0,32.6,25.1,20.1,0001.8,0014.99,0010.71,0010.19
2021-10-15 07:05:00,,0828.3,4.99,0.00,23.4,22.6,00.0,32.6,25.2,19.9,0001.3,0015.20,0010.64,0010.12
2021-10-15 07:06:00,,0828.3,5.01,0.00,23.5,22.7,00.0,32.6,25.2,19.7,0001.2,0015.02,0010.55,0010.06
2021-10-15 07:07:00,,0828.3,4.99,0.00,23.5,22.7,00.0,32.6,25.3,19.9,0000.1,0014.89,0010.50,0010.04
2021-10-15 07:08:00,,0828.3,4.99,0.00,23.5,22.7,00.0,32.6,25.3,20.1,-000.2,0014.43,0010.48,0010.04
2021-10-15 07:09:00,,0828.3,5.01,0.00,23.5,22.8,00.0,32.6,25.3,20.2,-001.0,0013.73,0010.45,0010.03
2021-10-15 07:10:00,,0828.4,4.99,0.00,23.6,22.8,00.0,32.6,25.4,20.1,-001.5,0013.41,0010.48,0010.04
2021-10-15 07:11:00,,0828.4,4.99,0.00,23.6,22.8,00.0,32.7,25.4,20.2,-001.3,0013.38,0010.55,0010.09
2021-10-15 07:12:00,,0828.5,5.00,0.00,23.6,22.8,00.0,32.7,25.4,20.3,-001.5,0013.34,0010.58,0010.15
2021-10-15 07:13:00,,0828.5,5.00,0.00,23.6,22.8,00.0,32.7,25.4,20.3,-001.8,0013.44,0010.65,0010.20
2021-10-15 07:14:00,,0828.5,5.00,0.00,23.6,22.8,00.0,32.7,25.4,19.9,-001.9,0013.48,0010.64,0010.18
2021-10-15 07:15:00,,0828.5,5.00,0.00,23.6,22.9,00.0,32.7,25.4,19.7,-001.8,0013.36,0010.59,0010.13
2021-10-15 07:16:00,,0828.5,4.98,0.00,23.6,22.9,00.0,32.7,25.5,19.7,-001.3,0013.24,0010.62,0010.15
2021-10-15 07:17:00,,0828.4,5.00,0.00,23.7,22.9,00.0,32.7,25.5,19.7,-000.8,0013.38,0010.65,0010.16
2021-10-15 07:18:00,,0828.4,5.00,0.00,23.7,22.9,00.0,32.7,25.5,19.7,-000.5,0013.38,0010.66,0010.16
2021-10-15 07:19:00,,0828.3,5.00,0.00,23.7,22.9,00.0,32.7,25.5,19.6,-000.9,0013.33,0010.61,0010.11
2021-10-15 07:20:00,,0828.3,4.99,0.00,23.7,22.9,00.0,32.7,25.5,19.6,-001.0,0013.29,0010.55,0010.06
2021-10-15 07:21:00,,0828.4,5.00,0.00,23.7,22.9,00.0,32.7,25.5,19.6,-000.8,0013.49,0010.52,0010.02
2021-10-15 07:22:00,,0828.3,5.00,0.00,23.7,23.0,00.0,32.7,25.5,19.6,-000.7,0013.56,0010.42,0009.95
2021-10-15 07:23:00,,0828.4,4.99,0.00,23.7,23.0,00.0,32.8,25.5,19.6,-000.6,0013.42,0010.32,0009.87
2021-10-15 07:24:00,,0828.4,5.01,0.00,23.8,23.0,00.0,32.8,25.6,19.6,-000.6,0013.37,0010.26,0009.80
2021-10-15 07:25:00,,0828.5,5.00,0.00,23.8,23.0,00.0,32.8,25.6,19.5,-000.5,0013.39,0010.23,0009.78
2021-10-15 07:26:00,,0828.5,5.00,0.00,23.8,23.0,00.0,32.8,25.6,19.5,-000.5,0013.51,0010.25,0009.79
2021-10-15 07:27:00,,0828.5,5.01,0.00,23.8,23.0,00.0,32.8,25.6,19.5,-000.2,0013.43,0010.23,0009.78
2021-10-15 07:28:00,,0828.4,5.00,0.00,23.8,23.0,00.0,32.8,25.6,19.5,-000.4,0013.26,0010.18,0009.75
2021-10-15 07:29:00,,0828.4,4.99,0.00,23.8,23.0,00.0,32.8,25.6,19.6,-000.4,0013.14,0010.12,0009.72
2021-10-15 07:30:00,,0828.4,5.01,0.00,23.8,23.0,00.0,32.8,25.6,19.4,0000.0,0013.19,0010.11,0009.70
2021-10-15 07:31:00,,0828.5,4.99,0.00,23.8,23.0,00.0,32.9,25.6,19.4,0000.7,0013.16,0010.05,0009.65
2021-10-15 07:32:00,,0828.5,5.01,0.00,23.8,23.0,00.0,32.9,25.6,19.4,0001.0,0012.82,0009.97,0009.60
2021-10-15 07:33:00,,0828.4,5.01,0.00,23.9,23.0,00.0,32.9,25.6,19.3,0001.4,0012.54,0009.93,0009.55
2021-10-15 07:34:00,,0828.5,5.00,0.00,23.9,23.0,00.0,32.9,25.6,19.3,0001.4,0012.58,0009.89,0009.50
2021-10-15 07:35:00,,0828.5,5.00,0.00,23.9,23.0,00.0,32.9,25.6,19.3,0001.6,0012.53,0009.83,0009.44
2021-10-15 07:36:00,,0828.5,5.00,0.00,23.9,23.0,00.0,32.9,25.6,19.2,0001.6,0012.91,0009.78,0009.40
2021-10-15 07:37:00,,0828.5,5.00,0.00,23.9,23.0,00.0,32.9,25.6,19.2,0001.8,0013.21,0009.73,0009.36
2021-10-15 07:38:00,,0828.8,5.00,0.00,23.9,23.0,00.0,32.9,25.7,19.2,0001.2,0013.43,0009.70,0009.34
2021-10-15 07:39:00,,0828.6,4.99,0.00,23.9,23.0,00.0,32.9,25.7,19.2,0000.7,0013.39,0009.66,0009.29
2021-10-15 07:40:00,,0828.5,5.02,0.00,23.9,23.1,00.0,32.9,25.7,19.3,0001.0,0013.39,0009.64,0009.26
2021-10-15 07:41:00,,0828.5,4.99,0.00,23.9,23.1,00.0,32.9,25.7,19.3,0000.6,0013.30,0009.60,0009.23
2021-10-15 07:42:00,,0828.5,5.00,0.00,23.9,23.1,00.0,32.9,25.7,19.3,0000.2,0013.59,0009.60,0009.22
2021-10-15 07:43:00,,0828.7,5.00,0.00,23.9,23.1,00.0,32.9,25.7,19.2,-000.1,0013.92,0009.60,0009.21
2021-10-15 07:44:00,,0829.0,5.01,0.00,23.9,23.1,00.0,32.9,25.7,19.1,0000.0,0013.91,0009.60,0009.20
2021-10-15 07:45:00,,0828.6,5.01,0.00,23.9,23.0,00.0,33.0,25.7,19.1,0000.0,0013.89,0009.60,0009.19
2021-10-15 07:46:00,,0828.8,5.00,0.00,23.9,23.0,00.0,33.0,25.7,19.2,0000.0,0013.94,0009.60,0009.19
2021-10-15 07:47:00,,0828.6,4.99,0.00,23.9,23.0,00.0,33.0,25.7,19.2,-000.1,0013.90,0009.62,0009.19
2021-10-15 07:48:00,,0828.9,5.01,0.00,23.9,23.0,00.0,33.0,25.7,19.1,-000.8,0013.62,0009.67,0009.21
2021-10-15 07:49:00,,0828.9,4.99,0.00,23.9,23.1,00.0,33.0,25.7,18.9,0000.0,0013.83,0009.69,0009.22
2021-10-15 07:50:00,,0829.0,5.01,0.00,23.9,23.0,00.0,33.0,25.7,19.0,-000.5,0013.79,0009.68,0009.21
2021-10-15 07:51:00,,0829.1,4.99,0.00,23.9,23.1,00.0,33.0,25.7,19.0,-001.4,0013.79,0009.69,0009.22
2021-10-15 07:52:00,,0828.7,5.00,0.00,23.9,23.1,00.0,33.0,25.7,19.0,-001.7,0013.80,0009.70,0009.23
2021-10-15 07:53:00,,0828.9,5.00,0.00,23.9,23.1,00.0,33.0,25.7,18.9,-002.3,0013.49,0009.69,0009.24
2021-10-15 07:54:00,,0828.7,5.00,0.00,23.9,23.1,00.0,33.0,25.7,18.9,-001.6,0013.10,0009.68,0009.25
2021-10-15 07:55:00,,0829.2,4.99,0.00,23.9,23.1,00.0,33.0,25.7,18.9,-002.0,0013.20,0009.68,0009.24
2021-10-15 07:56:00,,0829.3,5.00,0.00,23.9,23.0,00.0,33.0,25.7,18.9,-002.2,0013.18,0009.66,0009.24
2021-10-15 07:57:00,,0828.8,5.00,0.00,23.9,23.0,00.0,33.0,25.7,19.1,-002.4,0013.10,0009.67,0009.27
2021-10-15 07:58:00,,0828.7,4.99,0.00,23.9,23.0,00.0,33.0,25.7,19.3,-002.1,0013.00,0009.65,0009.29
2021-10-15 07:59:00,,0828.7,5.00,0.00,23.9,23.0,00.0,33.0,25.7,19.3,-001.2,0012.57,0009.62,0009.31
